FENGYUN 1C DEB, 36236

Orbit data source: Space-Track

FENGYUN 1C DEB, 36236 is space debris in SSO originally from a launch on Mon, 10 May 1999 UTC launched from the Taiyaun Space Center, China (TSC). Fengyun 1C debris stems from the Chinese weather satellite Fengyun-1C, which was intentionally destroyed by a Chinese anti-satellite missile in 2007. This event dramatically increased the amount of space debris, with thousands of trackable fragments posing hazards to satellites and human spaceflight. The Fengyun 1C debris cloud has become a focal point in discussions about space sustainability and the need for international regulations to prevent the creation of new debris.

Loading next visibility...
Identifier
36236, 1999-025DVM
Orbit
SSO
Country
Flag of CNCN / PRC
Related business
Manufacturer
Unknown
Mission
Spacecraft
Bus & Motor
Unknown
Mass
Unknown
Launch date (UTC)
1999-05-10 (27 years ago)
Launch vehicle
Unknown
Launch site
Taiyaun Space Center, China (TSC)
Object type
Payload
Rocket body
Debris
Shape & HBR
Unknown shape, 0.1 m
Radar Cross Section
Small (<0.1 m²)

Expand to show TLE details & history
Last TLE update: 2 weeks ago

TLE from 2 weeks ago
0 FENGYUN 1C DEB
1 36236U 99025DVM 26024.36787648  .00000496  00000-0  45934-3 0  9995
2 36236  98.8445  67.1558 0149359 242.7448 115.8425 13.81993902603363
Epoch: 2026-01-24T08:49Z
TLE epoch observation values (Epoch: 2026-01-24T08:49:44.527Z)
Latitude
-0.00007°
Longitude
171.02694°
Altitude
1,008.757 km
Speed
7.323 km/s
True Right ascension
04h 28m 37s
True Declination
0° 00' 00"
Sunlit
Object was in daylight at epoch
Visualization orbit readout
Latitude
Unknown
Longitude
Unknown
Altitude
Unknown
Speed
Unknown
Apparent Right ascension
Unknown
Apparent Declination
Unknown
Sunlit
N/A
Visualization observer readout
Local Sidereal Time
18:53:06
Azimuth
Unknown
Elevation
Unknown
Doppler factor
Unknown
Orbital elements
Apogee altitude
1,063.551 km
Perigee altitude
844.526 km
Semi-major axis
7,332.175 km
Eccentricity
0.01494
Inclination
98.8445°
RAAN
67.1558°
Arg. of periapsis
242.7448°
True anomaly
117.37025°
Mean anomaly
115.8425°
Eccentric anomaly
116.60763°
Mean motion
3.45696 °/min
Orbital period
104.14 mins
BSTAR
0.00045934
Loading maneuver chart data...
Computing Atmospheric mass density...

Documentation

Showing up to 5 results
|